Tallevast, FL

4:56 PM EST on January 17, 2017 (GMT -0500)
Sarasota-bradenton

Weather History for KSRQ - February, 2012

Change the Weather History Date:

Monday, February 20, 2012

  Actual Average Record
Temperature  
Mean Temperature 66 °F 64 °F  
Max Temperature 75 °F 74 °F 85 °F (1977)
Min Temperature 57 °F 54 °F 32 °F (1916)
Degree Days  
Heating Degree Days 0 3  
Month to date heating degree days 38 74  
Since 1 July heating degree days 198 394  
Cooling Degree Days 1 2  
Month to date cooling degree days 81 36  
Year to date cooling degree days 115 88  
Growing Degree Days 15 (Base 50)    
Moisture  
Dew Point 49 °F    
Average Humidity 59    
Maximum Humidity 69    
Minimum Humidity 35    
Precipitation  
Precipitation 0.00 in 0.13 in 1.47 in (1957)
Month to date precipitation 0.74 1.58  
Year to date precipitation 1.73 4.07  
Sea Level Pressure  
Sea Level Pressure 30.07 in    
Wind  
Wind Speed 9 mph (NNE)    
Max Wind Speed 21 mph    
Max Gust Speed 28 mph    
Visibility 10 miles    
Events      
T = Trace of Precipitation, MM = Missing Value Source: NWS Daily Summary

Daily Weather History Graph

Daily Weather History Graph

Search for Another Location

Airport or City:

Trip Planner

Search our weather history database for the weather conditions in past years. The results will help you decide how hot, cold, wet, or windy it might be!

Date:

Astronomy

Feb. 20, 2012 Rise Set
Actual Time 7:03 AM EST 6:24 PM EST
Civil Twilight 6:39 AM EST 6:48 PM EST
Nautical Twilight 6:12 AM EST 7:15 PM EST
Astronomical Twilight 5:45 AM EST 7:43 PM EST
Moon 5:56 AM EST (2/20) 5:29 PM EST (2/20)
Length of Visible Light 12h 08m
Length of Day
11h 21m
Waning Crescent, 2% of the Moon is Illuminated
Feb 20
Waning Crescent
Feb 21
New
Feb 29
First Quarter
Mar 8
Full
Mar 14
Last Quarter

Hourly Weather History & Observations

Time (EST) Temp. Dew Point Humidity Pressure Visibility Wind Dir Wind Speed Gust Speed Precip Events Conditions
12:53 AM 64.9 °F 54.0 °F 68% 29.98 in 10.0 mi WNW 16.1 mph - N/A   Overcast
1:53 AM 64.9 °F 54.0 °F 68% 29.98 in 10.0 mi NW 10.4 mph - N/A   Overcast
2:21 AM 64.4 °F 53.6 °F 68% 29.97 in 10.0 mi NW 11.5 mph - N/A   Overcast
2:53 AM 64.9 °F 53.1 °F 65% 29.98 in 10.0 mi NW 11.5 mph - N/A   Overcast
3:09 AM 64.4 °F 53.6 °F 68% 29.98 in 10.0 mi NW 16.1 mph 19.6 mph N/A   Overcast
3:53 AM 64.0 °F 52.0 °F 65% 29.98 in 10.0 mi NNW 10.4 mph - N/A   Overcast
4:53 AM 63.0 °F 52.0 °F 67% 29.98 in 10.0 mi NW 6.9 mph - N/A   Overcast
5:53 AM 62.1 °F 52.0 °F 70% 30.01 in 10.0 mi NNW 9.2 mph - N/A   Overcast
6:53 AM 60.1 °F 50.0 °F 69% 30.04 in 10.0 mi North 9.2 mph - N/A   Mostly Cloudy
7:03 AM 59.0 °F 50.0 °F 72% 30.04 in 10.0 mi North 6.9 mph - N/A   Partly Cloudy
7:21 AM 60.8 °F 50.0 °F 68% 30.05 in 10.0 mi North 5.8 mph - N/A   Mostly Cloudy
7:53 AM 60.1 °F 50.0 °F 69% 30.06 in 10.0 mi North 5.8 mph - N/A   Mostly Cloudy
8:53 AM 62.1 °F 50.0 °F 65% 30.09 in 10.0 mi NE 6.9 mph - N/A   Mostly Cloudy
9:09 AM 62.6 °F 50.0 °F 63% 30.09 in 10.0 mi NNE 10.4 mph 17.3 mph N/A   Scattered Clouds
9:53 AM 64.9 °F 51.1 °F 61% 30.10 in 10.0 mi North 9.2 mph - N/A   Scattered Clouds
10:53 AM 66.9 °F 50.0 °F 54% 30.11 in 10.0 mi NE 6.9 mph - N/A   Clear
11:53 AM 68.0 °F 48.0 °F 49% 30.12 in 10.0 mi East 6.9 mph - N/A   Clear
12:53 PM 71.1 °F 46.9 °F 42% 30.10 in 10.0 mi ESE 4.6 mph - N/A   Clear
1:53 PM 73.0 °F 45.0 °F 37% 30.09 in 10.0 mi NE 4.6 mph - N/A   Clear
2:53 PM 73.9 °F 46.0 °F 37% 30.07 in 10.0 mi NE 9.2 mph - N/A   Clear
3:53 PM 73.4 °F 44.6 °F 36% 30.08 in 10.0 mi East 10.4 mph - N/A   Clear
4:53 PM 73.0 °F 45.0 °F 37% 30.09 in 10.0 mi ENE 6.9 mph - N/A   Clear
5:53 PM 71.1 °F 45.0 °F 39% 30.09 in 10.0 mi ENE 10.4 mph - N/A   Clear
6:53 PM 66.9 °F 46.0 °F 47% 30.10 in 10.0 mi ENE 5.8 mph - N/A   Clear
7:53 PM 64.0 °F 46.9 °F 54% 30.13 in 10.0 mi ENE 5.8 mph - N/A   Clear
8:53 PM 63.0 °F 48.0 °F 58% 30.17 in 10.0 mi ENE 10.4 mph - N/A   Clear
9:53 PM 60.1 °F 46.9 °F 62% 30.19 in 10.0 mi East 12.7 mph - N/A   Clear
10:53 PM 57.9 °F 46.9 °F 67% 30.20 in 10.0 mi ENE 8.1 mph - N/A   Clear
11:53 PM 57.0 °F 48.0 °F 72% 30.19 in 10.0 mi East 10.4 mph - N/A   Clear